TimeCDT,TemperatureF,Dew PointF,Humidity,Sea Level PressureIn,VisibilityMPH,Wind Direction,Wind SpeedMPH,Gust SpeedMPH,PrecipitationIn,Events,Conditions,WindDirDegrees,DateUTC
12:54 AM,34.0,28.9,82,30.22,8.0,SSE,9.2,-,0.00,Rain,Light Rain,150,2013-04-22 05:54:00
1:54 AM,34.0,30.0,85,30.20,4.0,South,8.1,-,0.10,Rain,Light Rain,170,2013-04-22 06:54:00
2:54 AM,35.1,32.0,89,30.19,10.0,South,9.2,-,0.01,,Overcast,170,2013-04-22 07:54:00
3:54 AM,35.1,33.1,92,30.18,10.0,SSE,5.8,-,N/A,,Overcast,150,2013-04-22 08:54:00
4:54 AM,36.0,34.0,93,30.19,10.0,South,5.8,-,N/A,,Overcast,170,2013-04-22 09:54:00
5:42 AM,37.4,33.8,87,30.15,10.0,South,5.8,-,N/A,,Overcast,180,2013-04-22 10:42:00
5:54 AM,37.0,34.0,89,30.19,10.0,South,4.6,-,N/A,,Overcast,180,2013-04-22 10:54:00
6:54 AM,37.9,35.1,89,30.20,10.0,South,4.6,-,N/A,,Overcast,170,2013-04-22 11:54:00
7:54 AM,39.0,36.0,89,30.21,10.0,South,4.6,-,N/A,,Overcast,170,2013-04-22 12:54:00
8:54 AM,39.9,37.0,89,30.21,10.0,SSE,5.8,-,N/A,,Overcast,160,2013-04-22 13:54:00
9:38 AM,41.0,37.4,87,30.16,10.0,South,4.6,-,N/A,,Overcast,170,2013-04-22 14:38:00
9:54 AM,41.0,37.0,86,30.21,10.0,SSE,4.6,-,N/A,,Overcast,160,2013-04-22 14:54:00
10:54 AM,42.1,37.9,85,30.22,10.0,SE,3.5,-,N/A,,Overcast,140,2013-04-22 15:54:00
11:54 AM,43.0,37.9,82,30.22,10.0,SSE,8.1,-,N/A,,Overcast,160,2013-04-22 16:54:00
12:54 PM,43.0,39.0,86,30.20,10.0,SSE,3.5,-,N/A,,Overcast,150,2013-04-22 17:54:00
1:54 PM,42.1,39.9,92,30.20,4.0,South,3.5,-,0.01,Rain,Light Rain,170,2013-04-22 18:54:00
2:13 PM,42.8,41.0,93,30.16,1.8,Calm,Calm,-,0.03,Rain,Rain,0,2013-04-22 19:13:00
2:28 PM,42.8,39.2,87,30.17,2.0,Calm,Calm,-,0.05,Rain,Rain,0,2013-04-22 19:28:00
2:35 PM,42.8,41.0,93,30.17,1.5,Calm,Calm,-,0.07,Rain,Rain,0,2013-04-22 19:35:00
2:51 PM,42.8,41.0,93,30.16,2.5,ESE,3.5,-,0.09,Rain,Light Rain,110,2013-04-22 19:51:00
2:54 PM,42.1,41.0,96,30.20,2.5,SE,3.5,-,0.09,Rain,Light Rain,140,2013-04-22 19:54:00
2:58 PM,42.8,41.0,93,30.16,2.5,ESE,3.5,-,0.00,Rain,Light Rain,120,2013-04-22 19:58:00
3:07 PM,42.8,41.0,93,30.15,4.0,SE,3.5,-,0.00,Rain,Light Rain,130,2013-04-22 20:07:00
3:17 PM,42.8,41.0,93,30.15,5.0,SE,3.5,-,0.00,Rain,Light Rain,130,2013-04-22 20:17:00
3:54 PM,43.0,41.0,93,30.17,5.0,ENE,3.5,-,0.00,Rain,Light Rain,70,2013-04-22 20:54:00
4:03 PM,42.8,39.2,87,30.13,5.0,ENE,4.6,-,0.00,Rain,Light Rain,60,2013-04-22 21:03:00
4:54 PM,42.1,41.0,96,30.16,3.0,ENE,4.6,-,0.01,Rain,Light Rain,60,2013-04-22 21:54:00
5:23 PM,41.0,39.2,93,30.12,4.0,ESE,5.8,-,0.00,Rain,Light Rain,110,2013-04-22 22:23:00
5:54 PM,41.0,39.9,96,30.15,4.0,Calm,Calm,-,0.00,Rain,Light Rain,0,2013-04-22 22:54:00
6:46 PM,41.0,39.2,93,30.10,10.0,ESE,3.5,-,0.00,,Overcast,110,2013-04-22 23:46:00
6:54 PM,41.0,39.0,93,30.13,9.0,East,3.5,-,0.00,,Overcast,80,2013-04-22 23:54:00
7:54 PM,39.9,37.9,93,30.13,10.0,ENE,6.9,-,0.00,,Overcast,60,2013-04-23 00:54:00
8:13 PM,37.4,37.4,100,30.09,4.0,ENE,5.8,-,N/A,,Overcast,60,2013-04-23 01:13:00
8:54 PM,37.0,36.0,96,30.12,10.0,NE,6.9,-,N/A,,Overcast,50,2013-04-23 01:54:00
9:54 PM,36.0,34.0,93,30.12,10.0,East,5.8,-,0.00,Rain,Light Rain,80,2013-04-23 02:54:00
10:54 PM,36.0,34.0,93,30.12,8.0,NNE,3.5,-,0.00,Rain,Light Rain,30,2013-04-23 03:54:00
11:54 PM,35.1,34.0,96,30.10,10.0,Calm,Calm,-,0.00,,Overcast,0,2013-04-23 04:54:00